Flag for Germany Weather past 2 weeks in Westerstede, Lower Saxony, Germany

59 °F


Feels Like: 58 °F
Forecast: 53 / 60 °F
Wind: 7 mph from Southeast

Location: Wittmundhaven

Current Time: Oct 7, 2015 at 9:40:40 AM

Latest Report: Oct 7, 2015 at 8:47 AM

Visibility: 2 mi

Pressure: 29.74 "Hg

Humidity: 100%

Dew point: 59 °F

Location of WesterstedeLocation

Historic Weather in Westerstede — Graph


Westerstede temperature yesterday

Maximum temperature yesterday: 59 °F (at 5:20 PM)
Minimum temperature yesterday: 54 °F (at 8:20 AM)
Average temperature yesterday: 56 °F

Past Weeks' High & Low Weather Summary

High64 °F (Oct 5, 2:20 PM)100% (Sep 22, 8:02 AM)30.72 "Hg (Sep 22, 8:02 AM)
Low37 °F (Oct 2, 4:20 AM)55% (Sep 29, 5:20 PM)29.50 "Hg (Sep 22, 3:20 PM)
Average53 °F87%30.16 "Hg
* Reported Sep 22 8:02 AM — Oct 7 8:20 AM, Westerstede, Weather by CustomWeather, © 2015

Note: Actual official high and low records may vary slightly from our data, if they occured in-between our weather recording intervals... More about our weather records


Westerstede weather history for previous 24 hours

Time TempWeatherWind HumidityBarometerVisibility
8:20 AM
Wed, Oct 7
59 °FFog.7 mph100%29.71 "Hg2 mi
7:46 AM59 °FFog.7 mph100%29.71 "Hg1 mi
7:20 AM59 °FFog.7 mph94%29.71 "Hg1 mi
6:20 AM57 °FFog.6 mph100%29.71 "Hg1 mi
5:20 AM57 °FFog.6 mph100%29.68 "Hg2 mi
4:20 AM59 °FFog.7 mph94%29.68 "Hg2 mi
3:20 AM59 °FDrizzle. Fog.9 mph94%29.68 "Hg2 mi
2:47 AM57 °FDrizzle. Fog.9 mph100%29.68 "Hg2 mi
2:20 AM57 °FDrizzle. Fog.8 mph100%29.68 "Hg3 mi
1:20 AM57 °FFog.7 mph100%29.68 "Hg3 mi
12:20 AM57 °FPartly cloudy.8 mph100%29.68 "Hg4 mi
11:20 PM
Tue, Oct 6
57 °FPartly cloudy.10 mph100%29.68 "Hg4 mi
10:20 PM59 °FPartly cloudy.10 mph94%29.65 "Hg4 mi
9:20 PM59 °FFog.9 mph94%29.68 "Hg3 mi
8:20 PM59 °FFog.7 mph94%29.65 "Hg3 mi
7:20 PM59 °FBroken clouds.6 mph94%29.65 "Hg4 mi
6:20 PM59 °FBroken clouds.7 mph94%29.62 "HgN/A
5:20 PM59 °FFog.7 mph94%29.62 "Hg3 mi
4:20 PM57 °FDrizzle. Fog.8 mph100%29.62 "Hg3 mi
3:20 PM57 °FDrizzle. Fog.10 mph94%29.59 "Hg1 mi
2:58 PM57 °FDrizzle. Fog.10 mph94%29.59 "Hg1 mi
2:20 PM55 °FDrizzle. Fog.12 mph100%29.62 "Hg2 mi
1:20 PM55 °FDrizzle. Fog.13 mph94%29.62 "Hg1 mi
1:03 PM55 °FDrizzle. Fog.14 mph94%29.62 "Hg2 mi
12:48 PM55 °FDrizzle. Fog.13 mph94%29.62 "Hg2 mi
12:20 PM55 °FDrizzle. Fog.15 mph94%29.62 "Hg2 mi
11:20 AM55 °FDrizzle. Fog.14 mph94%29.62 "Hg2 mi
10:20 AM54 °FDrizzle. Fog.16 mph94%29.62 "Hg1 mi
9:20 AM54 °FRain. Fog.16 mph94%29.65 "Hg2 mi
Weather by CustomWeather, © 2015

See weather overviewHow to use our weather pages